Powrót do katalogu

GALILEO 31

10D

AktywnyNawigacjaMEO
NORAD 61183·PAYLOAD·🇪🇺 EU

Wystrzelony Sep 17, 2024 z Cape Canaveral Space Force Station

Loading…

Następne Przeloty (najbliższe 24 godziny)

TLE

ŚwieżeSource: CelesTrak SupGP

Epoka: Sep 13, 2026, 23:59 UTC

1 61183C 24167B   26256.99979167  .00000000  00000+0  00000+0 0  2561
2 61183  55.1641 218.8856 0002352 248.6533 317.7362  1.70473675    14

Śledź GALILEO 31 w czasie rzeczywistym z AllMySat

Download on the App Store